| time (UTC) | temp F | wind direction | speed MPH | gust MPH | rain 1hr in | rain 24hr in | rain mn in | humidity % | barometer mb |
| 20260904050101 | 82 | 155 | 0.0 | 1.0 | 0.00 | 0.00 | 0.00 | 92 | 1013.0 |
| 20260904044558 | 82 | 155 | 0.0 | 2.0 | 0.00 | 0.00 | 0.00 | 92 | 1013.1 |
| 20260904043059 | 82 | 155 | 0.0 | 1.0 | 0.00 | 0.00 | 0.00 | 92 | 1013.0 |
| 20260904041605 | 82 | 155 | 0.0 | 1.0 | 0.00 | 0.00 | 0.00 | 92 | 1013.0 |
| 20260904040100 | 82 | 155 | 0.0 | 3.0 | 0.00 | 0.00 | 0.00 | 92 | 1013.0 |
| 20260904034603 | 82 | 155 | 0.0 | 0.0 | 0.00 | 0.00 | 0.00 | 92 | 1013.1 |
| 20260904033114 | 82 | 155 | 0.0 | 0.0 | 0.00 | 0.00 | 0.00 | 92 | 1013.1 |
| 20260904031558 | 82 | 155 | 0.0 | 1.0 | 0.00 | 0.00 | 0.00 | 92 | 1013.0 |
| 20260904030100 | 82 | 155 | 0.0 | 3.0 | 0.00 | 0.00 | 0.00 | 92 | 1013.0 |
| 20260904030002 | 82 | 155 | 0.0 | 3.0 | 0.00 | 0.00 | 0.00 | 92 | 1013.0 |
| 20260904024557 | 82 | 117 | 0.0 | 2.0 | 0.00 | 0.00 | 0.00 | 92 | 1012.9 |
| 20260904023057 | 82 | 98 | 0.0 | 1.0 | 0.00 | 0.00 | 0.00 | 91 | 1012.6 |
| 20260904021559 | 82 | 93 | 0.0 | 1.0 | 0.00 | 0.00 | 0.00 | 91 | 1012.5 |
| 20260904020118 | 82 | 69 | 0.0 | 2.0 | 0.00 | 0.00 | 0.00 | 91 | 1012.6 |
| 20260904020002 | 82 | 69 | 0.0 | 2.0 | 0.00 | 0.00 | 0.00 | 91 | 1012.6 |
| 20260904014647 | 82 | 70 | 0.0 | 0.0 | 0.00 | 0.00 | 0.00 | 91 | 1012.4 |
| 20260904014502 | 82 | 70 | 0.0 | 0.0 | 0.00 | 0.00 | 0.00 | 91 | 1012.3 |
| 20260904013004 | 82 | 70 | 0.0 | 1.0 | 0.00 | 0.00 | 0.00 | 91 | 1012.2 |
| 20260904011607 | 82 | 70 | 0.0 | 0.0 | 0.00 | 0.00 | 0.00 | 91 | 1012.2 |
| 20260904010104 | 82 | 70 | 0.0 | 2.0 | 0.00 | 0.00 | 0.00 | 91 | 1012.0 |
| 20260904004602 | 82 | 70 | 0.0 | 2.0 | 0.00 | 0.00 | 0.00 | 91 | 1011.9 |
| 20260904003112 | 82 | 71 | 0.0 | 3.0 | 0.00 | 0.00 | 0.00 | 91 | 1012.0 |
| 20260904001600 | 82 | 71 | 0.0 | 3.0 | 0.00 | 0.00 | 0.00 | 91 | 1012.1 |
| 20260904000101 | 81 | 71 | 0.0 | 3.0 | 0.00 | 0.00 | 0.00 | 91 | 1012.3 |
| 20260903234613 | 81 | 61 | 0.0 | 3.0 | 0.00 | 0.00 | 0.00 | 91 | 1012.3 |
| 20260903233100 | 81 | 70 | 0.0 | 4.0 | 0.00 | 0.00 | 0.00 | 91 | 1012.1 |
| 20260903231600 | 81 | 78 | 0.0 | 4.0 | 0.00 | 0.00 | 0.00 | 91 | 1012.2 |
| 20260903230107 | 80 | 66 | 1.0 | 3.0 | 0.00 | 0.00 | 0.00 | 91 | 1012.2 |
| 20260903230003 | 80 | 70 | 1.0 | 3.0 | 0.00 | 0.00 | 0.00 | 91 | 1012.2 |
| 20260903224600 | 80 | 61 | 0.0 | 3.0 | 0.00 | 0.00 | 0.00 | 92 | 1012.6 |
| 20260903223100 | 80 | 64 | 0.0 | 4.0 | 0.00 | 0.00 | 0.00 | 92 | 1012.4 |
| 20260903221559 | 80 | 91 | 0.0 | 4.0 | 0.00 | 0.00 | 0.00 | 92 | 1012.3 |
| 20260903220107 | 80 | 69 | 1.0 | 3.0 | 0.00 | 0.00 | 0.00 | 92 | 1012.6 |
| 20260903220002 | 80 | 70 | 1.0 | 3.0 | 0.00 | 0.00 | 0.00 | 92 | 1012.6 |
| 20260903214559 | 80 | 78 | 0.0 | 5.0 | 0.00 | 0.00 | 0.00 | 93 | 1012.9 |
| 20260903213100 | 79 | 5 | 0.0 | 2.0 | 0.00 | 0.00 | 0.00 | 92 | 1013.0 |
| 20260903211600 | 79 | 283 | 0.0 | 1.0 | 0.00 | 0.00 | 0.00 | 92 | 1013.4 |
| 20260903204602 | 79 | 265 | 0.0 | 0.0 | 0.00 | 0.00 | 0.00 | 92 | 1013.4 |
| 20260903203059 | 78 | 265 | 0.0 | 0.0 | 0.00 | 0.00 | 0.00 | 92 | 1013.5 |
| 20260903201600 | 78 | 271 | 1.0 | 4.0 | 0.00 | 0.00 | 0.00 | 91 | 1013.8 |
| 20260903200057 | 79 | 298 | 0.0 | 4.0 | 0.00 | 0.00 | 0.00 | 90 | 1013.5 |
| 20260903194604 | 80 | 312 | 1.0 | 4.0 | 0.00 | 0.00 | 0.00 | 90 | 1013.8 |
| 20260903193118 | 80 | 317 | 0.0 | 1.0 | 0.00 | 0.00 | 0.00 | 89 | 1014.2 |
| 20260903191605 | 82 | 302 | 2.0 | 5.0 | 0.00 | 0.00 | 0.00 | 87 | 1014.5 |
| 20260903184559 | 87 | 57 | 2.0 | 9.0 | 0.00 | 0.00 | 0.00 | 77 | 1013.8 |
| 20260903183106 | 89 | 51 | 3.0 | 11.0 | 0.00 | 0.00 | 0.00 | 75 | 1013.5 |
| 20260903181607 | 91 | 92 | 0.0 | 1.0 | 0.00 | 0.00 | 0.00 | 75 | 1013.5 |
| 20260903180107 | 91 | 107 | 0.0 | 1.0 | 0.00 | 0.00 | 0.00 | 76 | 1013.5 |
| 20260903174559 | 91 | 178 | 0.0 | 4.0 | 0.00 | 0.00 | 0.00 | 76 | 1013.8 |
| 20260903173104 | 91 | 180 | 0.0 | 6.0 | 0.00 | 0.00 | 0.00 | 77 | 1013.6 |
| 20260903171559 | 91 | 202 | 3.0 | 8.0 | 0.00 | 0.00 | 0.00 | 78 | 1013.9 |
| 20260903170213 | 91 | 219 | 2.0 | 6.0 | 0.00 | 0.00 | 0.00 | 79 | 1014.2 |
| 20260903170001 | 91 | 219 | 3.0 | 8.0 | 0.00 | 0.00 | 0.00 | 78 | 1014.2 |
| 20260903164601 | 90 | 223 | 2.0 | 8.0 | 0.00 | 0.00 | 0.00 | 81 | 1014.5 |
| 20260903163103 | 89 | 211 | 2.0 | 8.0 | 0.00 | 0.00 | 0.00 | 83 | 1014.4 |
| 20260903161616 | 88 | 217 | 3.0 | 6.0 | 0.00 | 0.00 | 0.00 | 83 | 1014.3 |
| 20260903160058 | 88 | 223 | 3.0 | 7.0 | 0.00 | 0.00 | 0.00 | 83 | 1014.4 |
| 20260903160001 | 88 | 230 | 4.0 | 8.0 | 0.00 | 0.00 | 0.00 | 84 | 1014.4 |
| 20260903154559 | 88 | 202 | 6.0 | 9.0 | 0.00 | 0.00 | 0.00 | 85 | 1014.3 |
| 20260903153057 | 87 | 190 | 1.0 | 4.0 | 0.00 | 0.00 | 0.00 | 87 | 1014.5 |
| 20260903151557 | 87 | 215 | 2.0 | 5.0 | 0.00 | 0.00 | 0.00 | 87 | 1014.5 |
| 20260903144559 | 85 | 171 | 1.0 | 4.0 | 0.00 | 0.00 | 0.00 | 89 | 1014.5 |
| 20260903143101 | 85 | 174 | 0.0 | 3.0 | 0.00 | 0.00 | 0.00 | 89 | 1014.6 |
| 20260903141559 | 84 | 175 | 0.0 | 5.0 | 0.00 | 0.00 | 0.00 | 90 | 1014.6 |
| 20260903140003 | 84 | 172 | 0.0 | 2.0 | 0.00 | 0.00 | 0.00 | 90 | 1014.4 |
| 20260903134600 | 83 | 179 | 0.0 | 2.0 | 0.00 | 0.00 | 0.00 | 90 | 1014.5 |
| 20260903133059 | 83 | 179 | 0.0 | 0.0 | 0.00 | 0.00 | 0.00 | 90 | 1014.6 |
| 20260903131606 | 83 | 179 | 0.0 | 1.0 | 0.00 | 0.00 | 0.00 | 90 | 1014.4 |
| 20260903130001 | 82 | 179 | 0.0 | 2.0 | 0.00 | 0.00 | 0.00 | 90 | 1014.2 |
| 20260903124619 | 82 | 154 | 1.0 | 5.0 | 0.00 | 0.00 | 0.00 | 90 | 1013.8 |
| 20260903123057 | 83 | 170 | 0.0 | 3.0 | 0.00 | 0.00 | 0.00 | 90 | 1013.6 |
| 20260903121557 | 83 | 170 | 1.0 | 6.0 | 0.00 | 0.00 | 0.00 | 89 | 1013.4 |
| 20260903120057 | 83 | 165 | 1.0 | 5.0 | 0.00 | 0.00 | 0.00 | 89 | 1013.5 |
| 20260903114608 | 82 | 189 | 1.0 | 5.0 | 0.00 | 0.00 | 0.00 | 88 | 1013.5 |
| 20260903113108 | 82 | 153 | 3.0 | 6.0 | 0.00 | 0.00 | 0.00 | 86 | 1013.6 |
| 20260903111600 | 82 | 140 | 2.0 | 9.0 | 0.00 | 0.00 | 0.00 | 87 | 1013.4 |
| 20260903110105 | 82 | 169 | 3.0 | 6.0 | 0.00 | 0.00 | 0.00 | 89 | 1013.5 |
| 20260903110003 | 82 | 153 | 3.0 | 6.0 | 0.00 | 0.00 | 0.00 | 89 | 1013.5 |
| 20260903104501 | 83 | 190 | 2.0 | 8.0 | 0.00 | 0.00 | 0.00 | 90 | 1013.3 |
| 20260903103101 | 83 | 187 | 2.0 | 6.0 | 0.00 | 0.00 | 0.00 | 89 | 1013.1 |
| 20260903094605 | 83 | 181 | 1.0 | 6.0 | 0.00 | 0.00 | 0.00 | 89 | 1013.1 |
| 20260903093102 | 83 | 207 | 2.0 | 7.0 | 0.00 | 0.00 | 0.00 | 89 | 1013.2 |
| 20260903091600 | 83 | 190 | 1.0 | 5.0 | 0.00 | 0.00 | 0.00 | 89 | 1013.2 |
| 20260903090100 | 83 | 182 | 2.0 | 5.0 | 0.00 | 0.00 | 0.00 | 89 | 1013.3 |
| 20260903090002 | 83 | 178 | 1.0 | 5.0 | 0.00 | 0.00 | 0.00 | 89 | 1013.3 |
| 20260903083104 | 84 | 157 | 2.0 | 7.0 | 0.00 | 0.00 | 0.00 | 89 | 1013.1 |
| 20260903081559 | 84 | 178 | 2.0 | 5.0 | 0.00 | 0.00 | 0.00 | 89 | 1012.9 |
| 20260903080002 | 84 | 185 | 1.0 | 7.0 | 0.00 | 0.00 | 0.00 | 89 | 1012.9 |
| 20260903074604 | 84 | 172 | 2.0 | 6.0 | 0.00 | 0.00 | 0.00 | 89 | 1013.0 |
| 20260903073106 | 84 | 167 | 2.0 | 5.0 | 0.00 | 0.00 | 0.00 | 89 | 1013.1 |
| 20260903071601 | 84 | 146 | 0.0 | 3.0 | 0.00 | 0.00 | 0.00 | 89 | 1013.2 |
| 20260903070058 | 84 | 165 | 1.0 | 5.0 | 0.00 | 0.00 | 0.00 | 88 | 1013.5 |
| 20260903064600 | 84 | 155 | 1.0 | 3.0 | 0.00 | 0.00 | 0.00 | 88 | 1013.7 |
| 20260903063059 | 84 | 157 | 1.0 | 5.0 | 0.00 | 0.00 | 0.00 | 88 | 1013.7 |
| 20260903061559 | 85 | 163 | 1.0 | 5.0 | 0.00 | 0.00 | 0.00 | 88 | 1014.0 |
| 20260903060100 | 85 | 147 | 0.0 | 5.0 | 0.00 | 0.00 | 0.00 | 88 | 1014.0 |
| 20260903060002 | 85 | 147 | 0.0 | 5.0 | 0.00 | 0.00 | 0.00 | 88 | 1014.0 |
| 20260903054559 | 85 | 174 | 3.0 | 6.0 | 0.00 | 0.00 | 0.00 | 88 | 1014.2 |
| 20260903053103 | 85 | 166 | 0.0 | 1.0 | 0.00 | 0.00 | 0.00 | 87 | 1014.3 |
| 20260903051604 | 85 | 166 | 1.0 | 5.0 | 0.00 | 0.00 | 0.00 | 87 | 1014.6 |